Plymouth, NH

7:12 PM EDT on June 28, 2017 (GMT -0400)
Plymouth

Weather History for K1P1 - October, 2014

Change the Weather History Date:

Wednesday, October 22, 2014

  Actual Average (KLCI) Record (KLCI)
Temperature  
Mean Temperature 51 °F -  
Max Temperature 55 °F 56 °F 78 °F (2007)
Min Temperature 47 °F 35 °F 25 °F (1988)
Degree Days  
Heating Degree Days 14    
Growing Degree Days 1 (Base 50)    
Moisture  
Dew Point 48 °F    
Average Humidity 94    
Maximum Humidity 100    
Minimum Humidity 75    
Precipitation  
Precipitation 0.18 in - - ()
Sea Level Pressure  
Sea Level Pressure 30.07 in    
Wind  
Wind Speed 1 mph (ENE)    
Max Wind Speed 13 mph    
Max Gust Speed 21 mph    
Visibility 9 miles    
Events Rain    
Averages and records for this station are not official NWS values.
T = Trace of Precipitation, MM = Missing Value Source: NWS Daily Summary

Daily Weather History Graph

Daily Weather History Graph

Search for Another Location

Airport or City:

Trip Planner

Search our weather history database for the weather conditions in past years. The results will help you decide how hot, cold, wet, or windy it might be!

Date:

Astronomy

Oct. 22, 2014 Rise Set
Actual Time 7:10 AM EDT 5:52 PM EDT
Civil Twilight 6:40 AM EDT 6:21 PM EDT
Nautical Twilight 6:07 AM EDT 6:54 PM EDT
Astronomical Twilight 5:33 AM EDT 7:28 PM EDT
Moon 5:46 AM EDT (10/22) 5:18 PM EDT (10/22)
Length of Visible Light 11h 40m
Length of Day
10h 42m
Waning Crescent, 2% of the Moon is Illuminated
Oct 22
Waning Crescent
Oct 23
New
Oct 30
First Quarter
Nov 6
Full
Nov 14
Last Quarter

Hourly Weather History & Observations

Time (EDT) Temp. Dew Point Humidity Pressure Visibility Wind Dir Wind Speed Gust Speed Precip Events Conditions
12:15 AM 48.2 °F 48.2 °F 100% 30.06 in 10.0 mi Calm Calm - N/A   Overcast
12:35 AM 48.2 °F 48.2 °F 100% 30.07 in 7.0 mi Calm Calm - N/A Rain Light Rain
12:55 AM 48.2 °F 48.2 °F 100% 30.06 in 5.0 mi Calm Calm - 0.01 in Rain Rain
1:15 AM 48.0 °F 48.0 °F 100% 30.06 in 4.0 mi Calm Calm - 0.01 in Rain Rain
1:35 AM 47.7 °F 47.7 °F 100% 30.06 in 4.0 mi Calm Calm - 0.02 in Rain Light Rain
1:55 AM 47.5 °F 47.5 °F 100% 30.06 in 4.0 mi Calm Calm - 0.02 in   Light Drizzle
2:15 AM 47.5 °F 47.5 °F 100% 30.06 in 4.0 mi Calm Calm - N/A   Drizzle
2:35 AM 47.5 °F 47.5 °F 100% 30.06 in 4.0 mi Calm Calm - N/A   Drizzle
2:55 AM 47.5 °F 47.5 °F 100% 30.06 in 4.0 mi Calm Calm - 0.01 in   Light Drizzle
3:15 AM 47.5 °F 47.5 °F 100% 30.07 in 4.0 mi Calm Calm - N/A Rain Rain
3:35 AM 47.5 °F 47.5 °F 100% 30.07 in 3.0 mi Calm Calm - N/A   Light Drizzle
3:55 AM 47.3 °F 47.3 °F 100% 30.07 in 4.0 mi Calm Calm - N/A   Drizzle
4:15 AM 47.5 °F 47.5 °F 100% 30.07 in 7.0 mi Calm Calm - 0.01 in   Light Drizzle
4:35 AM 47.8 °F 47.8 °F 100% 30.07 in 10.0 mi Calm Calm - 0.01 in   Overcast
4:55 AM 47.7 °F 47.7 °F 100% 30.08 in 7.0 mi Calm Calm - 0.01 in   Drizzle
5:15 AM 47.7 °F 47.7 °F 100% 30.09 in 7.0 mi Calm Calm - N/A Rain Rain
5:35 AM 47.7 °F 47.7 °F 100% 30.09 in 10.0 mi Calm Calm - N/A   Overcast
5:55 AM 47.5 °F 47.5 °F 100% 30.10 in 10.0 mi Calm Calm - N/A   Light Drizzle
6:15 AM 47.5 °F 47.5 °F 100% 30.10 in 10.0 mi Calm Calm - N/A   Overcast
6:35 AM 47.7 °F 47.7 °F 100% 30.10 in 10.0 mi Calm Calm - N/A   Overcast
6:55 AM 47.8 °F 47.8 °F 100% 30.11 in 10.0 mi Calm Calm - N/A   Overcast
7:15 AM 47.8 °F 47.8 °F 100% 30.11 in 10.0 mi Calm Calm - N/A   Overcast
7:35 AM 48.0 °F 48.0 °F 100% 30.11 in 10.0 mi Calm Calm - N/A   Overcast
7:55 AM 47.7 °F 47.7 °F 100% 30.13 in 7.0 mi Calm Calm - N/A   Drizzle
8:15 AM 47.7 °F 47.7 °F 100% 30.13 in 10.0 mi Calm Calm - 0.01 in Rain Rain
8:35 AM 47.8 °F 47.8 °F 100% 30.13 in 10.0 mi Calm Calm - 0.01 in   Overcast
8:55 AM 48.2 °F 48.2 °F 100% 30.14 in 10.0 mi Calm Calm - 0.01 in   Overcast
9:15 AM 48.4 °F 48.4 °F 100% 30.14 in 10.0 mi Calm Calm - N/A   Overcast
9:35 AM 49.1 °F 49.1 °F 100% 30.13 in 10.0 mi Calm Calm - N/A   Overcast
9:55 AM 49.5 °F 48.7 °F 97% 30.14 in 10.0 mi Calm Calm - N/A   Overcast
10:15 AM 50.4 °F 48.9 °F 95% 30.14 in 10.0 mi Calm Calm - N/A   Overcast
10:35 AM 50.2 °F 49.6 °F 98% 30.13 in 10.0 mi Calm Calm - N/A Rain Light Rain
10:55 AM 49.6 °F 49.6 °F 100% 30.13 in 10.0 mi Calm Calm - 0.01 in Rain Light Rain
11:15 AM 49.8 °F 49.8 °F 100% 30.13 in 10.0 mi Calm Calm - N/A Rain Light Rain
11:35 AM 49.6 °F 49.6 °F 100% 30.13 in 7.0 mi Calm Calm - 0.01 in Rain Light Rain
11:55 AM 50.0 °F 50.0 °F 100% 30.13 in 10.0 mi Calm Calm - 0.02 in Rain Light Rain
12:15 PM 50.2 °F 50.2 °F 100% 30.12 in 10.0 mi Calm Calm - 0.01 in   Drizzle
12:35 PM 50.7 °F 50.5 °F 99% 30.10 in 10.0 mi Calm Calm - 0.01 in   Light Drizzle
12:55 PM 50.5 °F 50.5 °F 100% 30.09 in 10.0 mi Calm Calm - 0.01 in   Overcast
1:15 PM 52.7 °F 48.7 °F 86% 30.09 in 10.0 mi ENE 4.6 mph - N/A   Overcast
1:35 PM 51.3 °F 50.9 °F 99% 30.08 in 10.0 mi Calm Calm - N/A   Overcast
1:55 PM 52.2 °F 49.6 °F 91% 30.07 in 10.0 mi Calm Calm - N/A   Overcast
2:15 PM 52.0 °F 50.5 °F 95% 30.06 in 10.0 mi Calm Calm - N/A   Overcast
2:35 PM 54.1 °F 48.4 °F 81% 30.06 in 10.0 mi NE 3.5 mph - N/A   Overcast
2:55 PM 53.8 °F 50.0 °F 87% 30.05 in 10.0 mi Calm Calm - N/A   Overcast
3:15 PM 55.4 °F 48.2 °F 77% 30.05 in 7.0 mi NE 9.2 mph - N/A   Overcast
3:35 PM 55.0 °F 47.7 °F 76% 30.05 in 10.0 mi NE 9.2 mph - N/A   Overcast
3:55 PM 54.9 °F 46.9 °F 75% 30.05 in 10.0 mi NE 6.9 mph - N/A   Overcast
4:15 PM 54.7 °F 46.9 °F 75% 30.04 in 10.0 mi ENE 3.5 mph - N/A   Overcast
4:35 PM 54.5 °F 47.1 °F 76% 30.05 in 10.0 mi ENE 10.4 mph 17.3 mph N/A Rain Light Rain
4:55 PM 54.0 °F 47.1 °F 78% 30.05 in 10.0 mi NE 10.4 mph 17.3 mph N/A   Overcast
5:15 PM 54.0 °F 46.9 °F 77% 30.04 in 10.0 mi NE 9.2 mph 16.1 mph N/A Rain Light Rain
5:35 PM 52.3 °F 47.7 °F 84% 30.04 in 10.0 mi NE 10.4 mph 18.4 mph N/A Rain Light Rain
5:55 PM 52.3 °F 47.3 °F 83% 30.04 in 10.0 mi ENE 5.8 mph - N/A Rain Light Rain
6:15 PM 52.5 °F 47.1 °F 82% 30.03 in 10.0 mi NE 10.4 mph 16.1 mph N/A Rain Light Rain
6:35 PM 52.5 °F 46.9 °F 81% 30.03 in 10.0 mi ENE 5.8 mph - N/A   Overcast
6:55 PM 52.7 °F 46.9 °F 81% 30.03 in 10.0 mi SSE 4.6 mph - N/A   Overcast
7:15 PM 50.5 °F 48.2 °F 92% 30.04 in 5.0 mi Calm Calm - 0.04 in Rain Rain
7:35 PM 49.1 °F 49.1 °F 100% 30.03 in 7.0 mi Calm Calm - 0.08 in Rain Rain
7:55 PM 49.3 °F 49.1 °F 99% 30.02 in 10.0 mi Calm Calm - 0.08 in   Overcast
8:15 PM 50.4 °F 48.4 °F 93% 30.02 in 10.0 mi SSW 3.5 mph - N/A   Overcast
8:35 PM 49.5 °F 48.9 °F 98% 30.02 in 10.0 mi Calm Calm - N/A   Overcast
8:55 PM 50.4 °F 48.4 °F 93% 30.02 in 10.0 mi Calm Calm - N/A   Overcast
9:15 PM 50.5 °F 48.6 °F 93% 30.02 in 10.0 mi Calm Calm - N/A   Overcast
9:35 PM 50.0 °F 49.1 °F 97% 30.02 in 10.0 mi SSE 3.5 mph - N/A   Overcast
9:55 PM 50.7 °F 48.9 °F 94% 30.00 in 10.0 mi Calm Calm - N/A   Overcast
11:15 PM 53.1 °F 48.2 °F 84% 29.98 in 10.0 mi NE 12.7 mph 20.7 mph N/A   Overcast
11:35 PM 53.1 °F 48.4 °F 84% 29.98 in 10.0 mi ENE 6.9 mph - N/A   Overcast
11:55 PM 52.7 °F 48.4 °F 85% 29.97 in 10.0 mi ENE 3.5 mph - N/A   Overcast